Cookies

Aceptar Utilizamos cookies propias y de terceros para mejorar nuestros servicios y mostrarle publicidad relacionada con sus preferencias mediante el análisis de sus hábitos de navegación. Si continua navegando, consideramos que acepta su uso. Puede cambiar la configuración u obtener más información aqui.





Formato DD/MM/YYYY
Formato DD/MM/YYYY

IMPORTANTE: Los filtros deben estar dentro de un mismo rango de fechas para los cuales existen datos:

  • Rango 1: de 01/04/2018 a 18/12/2018.

Datos

Fecha Temperatura Raw(ºC) Conductividad(mS/cm) Salinidad(psu) Oxígeno Disuelto(%) Oxígeno Disuelto(mg/l) Turbidez(NTU) Clorofila(ug/l)
17/04/2018 16:00 12,00 48100,00 32,57 8,5 111,90 2,6 3,78
17/04/2018 20:00 12,56 48080,00 32,56 8,6 114,10 2,4 3,45
18/04/2018 00:00 12,90 48030,00 32,52 8,7 114,00 1,9 3,90
18/04/2018 04:00 12,67 48030,00 34,52 8,4 109,60 2,4 4,32
18/04/2018 08:00 13,70 49050,00 34,54 8,3 108,30 2,2 4,31
18/04/2018 12:00 13,64 49050,00 32,54 8,3 107,80 2,2 3,65
18/04/2018 16:00 13,58 49930,00 32,45 8,1 105,60 2,2 3,30
18/04/2018 20:00 13,62 49050,00 33,54 8,2 109,60 2,2 3,84
19/04/2018 00:00 12,64 49990,00 32,50 8,1 107,70 2,4 4,33
19/04/2018 04:00 12,10 49670,00 34,26 8,4 110,30 2,0 6,26
19/04/2018 08:00 12,03 49780,00 34,34 8,4 110,30 1,8 4,67
19/04/2018 12:00 12,08 49880,00 34,40 8,2 105,50 2,2 3,69
19/04/2018 16:00 12,14 48930,00 34,45 8,4 110,70 2,3 3,68
19/04/2018 20:00 12,93 48940,00 34,47 8,2 109,50 2,4 3,75
20/04/2018 00:00 12,76 48010,00 34,51 8,3 108,40 2,6 4,30
20/04/2018 04:00 12,50 51820,00 35,36 8,6 111,60 2,1 4,12
20/04/2018 08:00 12,48 49670,00 35,25 8,4 109,30 2,1 4,57
20/04/2018 12:00 12,30 49660,00 34,24 8,4 108,30 2,2 3,96
20/04/2018 16:00 12,14 49620,00 35,22 8,4 110,00 2,3 4,38
20/04/2018 20:00 12,25 49750,00 34,32 8,1 107,50 2,2 4,23
21/04/2018 00:00 12,69 49940,00 34,45 8,2 107,20 2,4 6,14
21/04/2018 04:00 12,32 52780,00 35,33 8,3 107,80 2,3 4,73
21/04/2018 08:00 12,31 51800,00 34,34 8,2 106,70 2,0 3,64
21/04/2018 12:00 12,10 51800,00 34,34 8,0 103,80 2,3 4,29
21/04/2018 16:00 12,68 51680,00 35,26 8,5 111,50 2,4 3,67
21/04/2018 20:00 12,95 51670,00 35,26 8,3 108,50 2,3 3,71
22/04/2018 00:00 12,69 51850,00 35,39 8,5 111,30 2,1 4,48
22/04/2018 04:00 13,98 51650,00 35,24 8,2 107,30 1,9 5,18
22/04/2018 08:00 13,86 51720,00 35,30 8,1 105,90 2,2 4,91
22/04/2018 12:00 12,57 51630,00 35,22 7,8 101,90 2,3 4,88
22/04/2018 16:00 12,58 52540,00 36,17 8,3 109,70 2,2 3,79
22/04/2018 20:00 12,47 52510,00 36,14 8,2 108,10 2,3 4,73
23/04/2018 00:00 12,25 52650,00 35,25 7,9 103,90 2,4 5,44
23/04/2018 04:00 13,52 52490,00 35,13 8,2 109,00 2,0 5,00
23/04/2018 08:00 13,43 52680,00 35,27 8,1 106,80 2,1 4,24
23/04/2018 12:00 13,10 52600,00 35,21 8,1 106,00 2,2 5,00
23/04/2018 16:00 13,97 52470,00 35,10 7,8 102,70 2,3 4,90
23/04/2018 20:00 13,88 52620,00 35,22 7,6 101,20 2,3 4,46
24/04/2018 00:00 13,33 52560,00 35,18 8,0 105,30 2,3 5,42
24/04/2018 04:00 13,69 53040,00 35,53 8,1 105,60 2,1 3,87
24/04/2018 08:00 13,64 53850,00 35,39 8,1 105,40 1,9 5,60
24/04/2018 12:00 13,34 53790,00 35,34 8,3 108,00 2,1 4,75
24/04/2018 16:00 13,97 51750,00 34,32 8,0 105,10 2,3 3,78
24/04/2018 20:00 13,58 51650,00 34,25 7,7 102,70 2,3 3,80
25/04/2018 00:00 13,51 52550,00 34,17 8,3 109,90 2,1 4,72
25/04/2018 04:00 13,76 53150,00 36,60 8,4 108,30 2,3 3,77
25/04/2018 08:00 13,91 53640,00 36,22 8,5 109,10 2,3 3,74
25/04/2018 12:00 13,55 54180,00 36,61 8,0 101,80 2,1 3,86
25/04/2018 16:00 13,05 54060,00 36,53 8,1 104,10 2,3 3,60
25/04/2018 20:00 13,55 53030,00 36,52 8,0 104,90 2,3 3,72
26/04/2018 00:00 13,93 53830,00 36,36 8,3 107,10 2,2 4,23
26/04/2018 04:00 13,76 53150,00 36,60 8,4 108,30 2,3 3,77
26/04/2018 08:00 13,91 53640,00 36,22 8,5 109,10 2,3 3,74
26/04/2018 12:00 14,04 52820,00 36,36 8,3 107,40 2,2 3,83
26/04/2018 16:00 14,50 52780,00 36,33 8,4 108,60 2,1 3,19
26/04/2018 20:00 14,57 54980,00 35,48 8,2 106,70 2,2 3,86
27/04/2018 00:00 13,60 54790,00 36,32 7,9 101,30 2,1 4,15
27/04/2018 04:00 13,43 54720,00 36,27 8,0 101,30 2,3 4,59
27/04/2018 08:00 14,08 54150,00 36,59 7,7 97,80 2,2 4,07
27/04/2018 12:00 13,40 54270,00 36,68 7,6 97,70 2,0 3,34
27/04/2018 16:00 13,30 54080,00 36,55 7,9 102,10 2,2 4,04
27/04/2018 20:00 13,71 54460,00 36,68 8,0 102,40 2,3 5,38
28/04/2018 00:00 13,25 54310,00 36,71 8,0 101,70 2,0 4,27
28/04/2018 04:00 13,65 54150,00 36,59 7,9 101,50 2,1 4,10
28/04/2018 08:00 13,55 54180,00 36,61 8,0 101,80 2,1 3,86
28/04/2018 12:00 13,05 54060,00 36,53 8,1 104,10 2,3 3,60
28/04/2018 16:00 13,55 53030,00 36,52 8,0 104,90 2,3 3,72
28/04/2018 20:00 13,93 53830,00 36,36 8,3 107,10 2,2 4,23
29/04/2018 00:00 13,76 53150,00 36,60 8,4 108,30 2,3 3,77
29/04/2018 04:00 13,91 53640,00 36,22 8,5 109,10 2,3 3,74
29/04/2018 08:00 14,04 52820,00 36,36 8,3 107,40 2,2 3,83
29/04/2018 12:00 14,50 52780,00 36,33 8,4 108,60 2,1 3,19
29/04/2018 16:00 14,57 54980,00 35,48 8,2 106,70 2,2 3,86
29/04/2018 20:00 14,84 54490,00 37,12 8,9 116,40 2,0 3,25
30/04/2018 00:00 14,69 54440,00 36,09 8,4 110,70 2,1 3,19
30/04/2018 04:00 14,38 54730,00 36,30 8,2 107,50 2,2 3,49
30/04/2018 08:00 14,53 54330,00 36,00 8,6 113,20 2,2 3,62
30/04/2018 12:00 14,03 54310,00 35,98 8,5 111,40 2,0 3,76
30/04/2018 16:00 14,22 54390,00 36,05 8,3 108,40 2,0 3,69
30/04/2018 20:00 14,96 54390,00 36,05 8,4 109,90 2,2 3,44
01/05/2018 00:00 14,04 54450,00 36,09 8,1 106,20 2,2 4,08
01/05/2018 04:00 14,02 54300,00 35,98 7,7 101,40 2,0 4,45
01/05/2018 08:00 14,02 54300,00 35,98 7,7 101,40 2,2 4,45
01/05/2018 12:00 14,03 54030,00 35,78 7,8 102,00 2,2 5,16
01/05/2018 16:00 14,09 53920,00 35,70 8,0 104,70 2,4 3,58
01/05/2018 20:00 14,21 53970,00 35,74 8,0 104,70 2,3 4,65
02/05/2018 00:00 14,28 53760,00 35,58 7,9 104,20 2,3 4,72
02/05/2018 04:00 14,88 53470,00 35,36 7,6 100,60 2,2 2,27
02/05/2018 08:00 14,66 53890,00 35,67 7,8 101,70 2,2 4,49
02/05/2018 12:00 14,98 53980,00 35,74 8,9 116,90 2,2 3,45
02/05/2018 16:00 14,98 53930,00 35,70 7,8 101,80 2,4 3,44
02/05/2018 20:00 14,09 54790,00 36,31 8,0 102,00 2,3 6,16
03/05/2018 00:00 14,66 55070,00 36,52 7,8 98,50 2,1 5,63
03/05/2018 04:00 14,17 54710,00 36,26 8,2 103,60 2,0 7,97
03/05/2018 08:00 14,06 54630,00 36,19 8,1 102,80 2,0 4,40
03/05/2018 12:00 14,72 55140,00 36,57 8,0 101,30 2,2 4,63
03/05/2018 16:00 14,98 55070,00 36,52 8,1 102,40 2,2 4,57
03/05/2018 20:00 14,48 55250,00 36,64 7,6 94,60 2,2 3,85
04/05/2018 00:00 14,15 55160,00 36,57 7,8 96,90 2,0 4,99
04/05/2018 04:00 14,29 55190,00 36,60 7,6 94,70 2,1 3,93
Total: 1.374